STARLINK-1464 (45751 NORAD) Tracking and Keplerian Element Data

This shows tracking and keplerian element data for the satellite.

Feedback or suggestion? Click here.




ElementValue
Catalog45751
NameSTARLINK-1464
Epoch Orbit551
Epoch Day192.16668981
Epoch Year2020
RAAN164.9197
Inclination53.0012
Eccentricity0.0001362
Argument of Perigee84.3739
Mean Anonmoly0.5801
Mean Motion15.6273136
Decay Rate-0.00024103
L11 45751U 20038X 20192.16668981 -.00024103 00000-0 -25839-3 0 9996
L22 45751 53.0012 164.9197 0001362 84.3739 0.5801 15.62731360 5517

Live tracking and technical data element details for STARLINK-1464 (NORAD 45751). STARLINK-1464 can be tracked NOW for your location showing map with azimuth and elevation plus other details from your city location.

Track the satellite on the map from your city or location and see movement details for azimuth, elevation, latitude, longitude, range, height, and movement on the map or in text.







IsCatalogInMostPopularTable: catalog: 45751, numindb: 4
Update: records affected: 1



GetName: 45751 STARLINK-1464

Hit Count: updated at: Fri, 10 Jul 2020 15:39:41 GMT